Regional Weather Roundup
Issued by NWS Austin/San Antonio, TX

Home | Current Version | Previous Version | Text Only | Print | Product List | Glossary On
Versions: 1 2 3 4 5 6 7 8 9 10 11 12 13 14 15 16 17 18 19 20 21 22 23 24 25 26 27 28 29 30 31 32 33 34 35 36 37 38 39 40 41 42 43 44 45 46 47 48 49 50
000
ASUS44 KEWX 201310
RWREWX
SOUTH TEXAS REGIONAL WEATHER ROUNDUP
NATIONAL WEATHER SERVICE AUSTIN/SAN ANTONIO TX
800 AM CDT WED SEP 20 2017

NOTE: "FAIR" INDICATED FEW OR NO CLOUDS BELOW 12,000 FEET WITH NO
SIGNIFICANT WEATHER AND/OR OBSTRUCTIONS TO VISIBILITY.

* - THESE STATIONS ARE NOT NWS OR FAA STATIONS...AND ARE NOT SUBJECT
    TO NWS AND FAA QUALITY CONTROL.

TXZ171-172-183>190-201400-
TEXAS HILL COUNTRY AND EDWARDS PLATEAU

CITY           SKY/WX    TMP DP  RH WIND       PRES   REMARKS
JUNCTION       CLEAR     74  71  91 CALM      29.93R
*LLANO         CLEAR     73  72  94 CALM      29.95R
BURNET         MOCLDY    76  72  87 S8        29.95R
*HORSESHOE BAY MOCLDY    76  72  86 S8        29.92R
*KERRVILLE     CLOUDY    74  71  91 S8        29.95R
*FREDERICKSBRG CLOUDY    73  68  84 S5        29.95R
*ROCKSPRINGS   NOT AVBL
*BOERNE STAGE  CLOUDY    73  70  88 S6        29.96R
*CASTROVILLE   CLOUDY    78  74  87 SE8       29.93S
HONDO          CLOUDY    78  74  87 SE13      29.92R
*UVALDE        CLOUDY    73  72  95 E7        29.91S FOG
DEL RIO        CLEAR     75  72  90 E8        29.88R
LAUGHLIN AFB   MOCLDY    74  72  93 SE8       29.88R
CARRIZO SPRGS  CLEAR     73  73 100 E5        29.87R FOG
*EAGLE PASS    SUNNY     75  72  88 E7        29.87R
$$

TXZ173-191>194-202-209-217>225-228-201400-
CENTRAL AND SOUTH CENTRAL TEXAS

CITY           SKY/WX    TMP DP  RH WIND       PRES   REMARKS
GEORGETOWN     CLOUDY    78  74  87 S12G20    29.93S
AUSTIN/BERGSTM PTCLDY    78  76  93 S7        29.91S
AUSTIN/MABRY   PTCLDY    78  74  87 CALM      29.93R
*AUSTIN/EXEC   PTCLDY    75  75 100 S7        29.92F FOG
*LAGO VISTA    PTCLDY    76  74  92 S9        29.94S
SAN MARCOS     CLOUDY    78  75  90 S10       29.93S
NEW BRAUNFELS  CLOUDY    79  74  84 S9        29.91S
RANDOLPH AFB   MOCLDY    78  78 100 S8        29.93R
PT SAN ANTONIO MOCLDY    78  73  86 S9        29.90F
SAN ANTONIO    CLOUDY    78  73  84 S12       29.93R
STINSON FIELD  CLOUDY    80  75  84 S6        29.90R
*LA GRANGE     CLOUDY    77  77  99 S3        29.91S FOG
*GIDDINGS      CLOUDY    75  73  95 S7        29.94R FOG
*GONZALES      CLOUDY    77  77 100 SE3       29.92R FOG
$$

TXZ163>164-176>182-195>201-210>213-226-227-235-201400-
SOUTHEAST TEXAS

CITY           SKY/WX    TMP DP  RH WIND       PRES   REMARKS
COLLEGE STN    CLOUDY    78  77  96 S7        29.93R
*BRYAN         CLOUDY    77  77 100 S9        29.94R
*CALDWELL      CLOUDY    77  76  95 S5        29.94R
*CROCKETT      CLOUDY    75  75 100 S5        29.97R FOG
*BRENHAM       CLOUDY    79  78  97 S7        29.93F FOG
HUNTSVILLE     CLEAR     78  75  90 S6        29.94R FOG
CONROE         MOSUNNY   76  75  97 SE3       29.94F FOG
HOUSTON BUSH   MOSUNNY   80  76  87 S3        29.94R
HOUSTON HOBBY  MOSUNNY   80  76  87 S5        29.93S
*HOUSTON SW AP SUNNY     75  74  99 CALM      29.95S FOG
PEARLAND       SUNNY     79  75  87 CALM      29.95R FOG
HOUSTON HOOKS  SUNNY     79  77  94 CALM      29.94R FOG
ELLINGTON FLD  MOSUNNY   81  75  83 CALM      29.96R
SUGAR LAND     MOSUNNY   79  77  94 SE5       29.93S
*HOUSTON EXEC  CLEAR     77  77 100 SE5       29.95S FOG
*CLEVELAND MUN FOG       76  75  97 CALM      29.96R VSB 3/4
*WHARTON       CLEAR     75  74  97 E3        29.93S FOG
*COLUMBUS      FOG       75  74  95 CALM      29.93S VSB 3/4
*EAGLE LAKE    FOG       76  76 100 CALM      29.93S VSB 1/4
$$

TXZ214>216-236>238-201400-
THE UPPER TEXAS COAST

CITY           SKY/WX    TMP DP  RH WIND       PRES   REMARKS
*ORANGE        PTSUNNY   81  79  94 S3        29.97R
PORT ARTHUR    PTSUNNY   82  78  88 S5        29.95R HX  91
GALVESTON      MOSUNNY   84  79  85 S10       29.94R HX  96
ANGLETON       LGT RAIN  82  78  88 CALM      29.94R HX  91
*BAY CITY      MOCLDY    77  77  99 CALM      29.93R FOG
PALACIOS       PTCLDY    81  77  88 S7        29.92R
$$

TXZ229>234-239>247-201400-
TEXAS COASTAL BEND AND RIO GRANDE PLAINS

CITY           SKY/WX    TMP DP  RH WIND       PRES   REMARKS
VICTORIA       PTCLDY    76  74  93 CALM      29.92R FOG
*BEEVILLE        N/A     74  74 100 CALM      29.91R FOG
ROCKPORT       PTCLDY    83  77  82 S7        29.89R HX  92
*PORT ARANSAS  NOT AVBL
*PORT LAVACA   NOT AVBL
*INGLESIDE     NOT AVBL
CORPUS CHRISTI MOCLDY    78  77  96 SE6       29.89R
CORPUS NAS     MOCLDY    83  79  88 S9        29.89R HX  94
*ROBSTOWN      PTCLDY    78  76  92 SE5       29.90R
ALICE          PTCLDY    77  76  96 SE8       29.89R FOG
KINGSVILLE NAS MOCLDY    80  79  96 S8        29.89R
COTULLA        CLEAR     77  73  87 SE7       29.88R
*FAITH RANCH   CLEAR     79  73  83 SE9       29.87R
LAREDO         CLEAR     80  74  81 SE15      29.87S
$$

TXZ248>255-201400-
DEEP SOUTH TEXAS

CITY           SKY/WX    TMP DP  RH WIND       PRES   REMARKS
BROWNSVILLE    PTCLDY    80  79  96 S7        29.89R
PORT ISABEL    PTCLDY    82  77  84 S8        29.88R HX  90
*SOUTH PADRE   NOT AVBL
HARLINGEN      PTCLDY    79  78  97 SE5       29.88R
*HEBBRONVILLE  MOCLDY    76  73  92 S8        29.90S FOG
MCALLEN        MOCLDY    81  76  84 SE10      29.88R
*WESLACO       PTCLDY    79  75  86 SE5       29.87S
FALFURRIAS     PTCLDY   -38  32 100 SE3       29.88S
EDINBURG       PTCLDY    78  74  89 SE5       29.88S FOG
*ZAPATA        PTCLDY    80  73  80 SE7       29.87R
$$

TXZ213>215-236>238-242>244-246-247-251-254-255-201400-
CMAN STATIONS

STATION/POSITION TIME  TEMP    WIND        PRES    WAVE
                       AIR SEA DIR/SP/G            HT/PER
                 (UTC) (F)     (DEG/KT/KT) (MB)    (FT/S)
SABINE PASS      1248   82 84  180/  8/ 12 1015.7
SEA RIM ST PARK  1200   82     180/ 11/ 14 1014.4
NORTH JETTY/GLS  1242      83  190/ 11/ 13 1013.3
EAGLE POINT      1248   83 84  210/  7/ 10 1013.9
MORGANS POINT    1248   81 82  210/  3/  5 1013.7
PORT O`CONNOR    1236   83 84  170/ 12/ 15 1012.5
MALAQUITE BEACH  1236   83 85  150/ 16/ 19 1011.4
BAFFIN BAY       1236   82 83  160/ 13/ 15 1011.7
PORT ISABEL      1236   82 85  160/  8/ 11 1012.0
$$




USA.gov is the U.S. government's official web portal to all federal, state and local government web resources and services.